TimeCDT,TemperatureF,Dew PointF,Humidity,Sea Level PressureIn,VisibilityMPH,Wind Direction,Wind SpeedMPH,Gust SpeedMPH,PrecipitationIn,Events,Conditions,WindDirDegrees,DateUTC
12:58 AM,47.1,46.8,99,29.98,10.0,Calm,Calm,-,N/A,,Clear,0,2013-04-01 05:58:00
1:58 AM,49.5,49.1,99,29.99,10.0,WSW,2.3,-,N/A,,Partly Cloudy,250,2013-04-01 06:58:00
2:58 AM,46.6,46.2,99,29.99,10.0,SW,4.6,-,N/A,,Clear,230,2013-04-01 07:58:00
3:58 AM,44.6,44.2,99,30.00,10.0,SW,4.6,-,N/A,,Clear,230,2013-04-01 08:58:00
4:58 AM,44.8,44.4,99,30.01,10.0,WSW,4.6,-,N/A,,Clear,240,2013-04-01 09:58:00
5:13 AM,42.8,42.8,100,30.00,1.8,WSW,4.6,-,N/A,,Clear,250,2013-04-01 10:13:00
5:18 AM,42.8,42.8,100,30.00,1.8,WSW,4.6,-,N/A,,Clear,240,2013-04-01 10:18:00
5:23 AM,44.6,44.6,100,30.01,0.8,WSW,4.6,-,N/A,,Clear,240,2013-04-01 10:23:00
5:28 AM,44.6,42.8,93,30.01,0.5,WSW,3.5,-,N/A,Fog,Fog,240,2013-04-01 10:28:00
5:38 AM,44.6,42.8,93,30.01,1.0,West,2.3,-,N/A,,Clear,270,2013-04-01 10:38:00
5:43 AM,44.6,42.8,93,30.01,1.5,West,2.3,-,N/A,,Clear,270,2013-04-01 10:43:00
5:48 AM,42.8,42.8,100,30.01,0.5,West,2.3,-,N/A,Fog,Fog,270,2013-04-01 10:48:00
5:53 AM,42.8,42.8,100,30.02,0.2,West,2.3,-,N/A,Fog,Fog,260,2013-04-01 10:53:00
5:58 AM,44.6,42.8,93,30.03,0.5,West,3.5,-,N/A,Fog,Fog,260,2013-04-01 10:58:00
6:03 AM,44.6,42.8,93,30.02,1.5,WSW,3.5,-,N/A,,Clear,250,2013-04-01 11:03:00
6:08 AM,44.6,44.6,100,30.02,4.0,WSW,4.6,-,N/A,,Clear,240,2013-04-01 11:08:00
6:58 AM,45.1,45.0,99,30.06,10.0,WSW,2.3,-,N/A,,Clear,250,2013-04-01 11:58:00
7:58 AM,48.7,48.6,99,30.07,10.0,WSW,4.6,-,N/A,,Clear,240,2013-04-01 12:58:00
8:58 AM,56.1,55.2,97,30.09,10.0,North,3.5,-,N/A,,Clear,350,2013-04-01 13:58:00
9:58 AM,60.8,46.2,59,30.10,10.0,NE,10.4,-,N/A,,Clear,50,2013-04-01 14:58:00
10:58 AM,62.4,45.5,54,30.12,10.0,NNE,8.1,-,N/A,,Clear,30,2013-04-01 15:58:00
11:58 AM,63.9,46.0,52,30.12,10.0,NE,5.8,-,N/A,,Clear,50,2013-04-01 16:58:00
12:58 PM,65.3,45.9,49,30.11,10.0,NE,6.9,-,N/A,,Clear,40,2013-04-01 17:58:00
1:58 PM,66.7,45.9,47,30.11,10.0,SE,4.6,-,N/A,,Clear,130,2013-04-01 18:58:00
2:58 PM,68.9,48.4,48,30.09,10.0,Variable,6.9,-,N/A,,Clear,0,2013-04-01 19:58:00
3:58 PM,69.1,47.3,46,30.08,10.0,ENE,6.9,-,N/A,,Clear,60,2013-04-01 20:58:00
4:58 PM,68.5,46.6,45,30.07,10.0,ENE,9.2,-,N/A,,Clear,70,2013-04-01 21:58:00
5:58 PM,68.4,48.2,48,30.07,10.0,ESE,5.8,-,N/A,,Clear,110,2013-04-01 22:58:00
6:58 PM,64.9,47.3,53,30.07,10.0,East,6.9,-,N/A,,Clear,90,2013-04-01 23:58:00
7:58 PM,61.2,46.9,60,30.08,10.0,East,8.1,-,N/A,,Clear,80,2013-04-02 00:58:00
8:58 PM,58.5,47.1,66,30.10,10.0,ENE,9.2,-,N/A,,Clear,60,2013-04-02 01:58:00
9:58 PM,57.2,46.2,67,30.10,10.0,NE,8.1,-,N/A,,Mostly Cloudy,50,2013-04-02 02:58:00
10:58 PM,55.0,46.0,72,30.12,10.0,NE,5.8,-,N/A,,Partly Cloudy,40,2013-04-02 03:58:00
11:58 PM,55.0,45.1,69,30.14,10.0,NNE,5.8,-,N/A,,Clear,20,2013-04-02 04:58:00